[[{"header":{"parameterUnit":"m.s-1","parameterCategory":1,"la1":30.2992,"la2":30.254,"lo1":-89.0895,"lo2":-89.0443,"dy":0.0025,"dx":0.0025,"nx":19,"ny":19,"refTime":"2026-05-14T03:00:00:Z","depth":0,"parameterNumber":2,"parameterNumberName":"U-component_of_WINDS"},"data":[0,0,0,-2.5251,-2.5252,-2.5273,-2.5274,-2.5311,-2.5312,0,0,0,0,0,0,0,0,0,0,0,-2.5251,-2.5251,-2.5251,-2.5252,-2.5273,-2.5274,-2.5311,-2.5312,0,0,0,0,0,0,0,0,0,0,0,-2.5251,-2.5251,-2.5252,-2.5252,-2.5273,-2.5274,-2.5311,-2.5291,0,0,0,0,0,0,0,0,0,0,-2.5268,-2.5274,-2.5251,-2.5252,-2.5252,-2.5273,-2.5274,-2.529,-2.5293,-2.5306,0,-2.532,0,-2.5316,-2.5315,-2.5315,0,0,0,-2.5247,-2.5272,-2.5272,-2.5252,-2.5252,-2.5273,-2.5262,-2.5291,-2.5294,-2.5309,-2.532,-2.5321,-2.5317,-2.5315,-2.5316,-2.5408,-2.5409,0,0,-2.5246,-2.5258,-2.5271,-2.5275,-2.5272,-2.5262,-2.5263,-2.5293,-2.5305,-2.532,-2.5322,-2.5318,-2.5316,-2.5316,-2.5408,-2.5408,0,0,0,-2.5246,-2.5257,-2.5257,-2.5273,-2.5276,-2.5262,-2.5264,-2.5304,-2.5303,-2.5322,-2.5318,-2.5316,-2.5317,-2.5407,-2.5408,-2.545,0,0,0,-2.5245,-2.5257,-2.5256,-2.5264,-2.5276,-2.5291,-2.5275,-2.5301,-2.5304,-2.5318,-2.5316,-2.5317,-2.5406,-2.5407,-2.5448,-2.5468,0,0,0,-2.5247,-2.5257,-2.5263,-2.5265,-2.5274,-2.529,-2.529,-2.5301,-2.5302,-2.5315,-2.5317,-2.5406,-2.5407,-2.5445,-2.5464,-2.5495,0,0,0,-2.5253,-2.53,-2.5263,-2.5315,-2.5274,-2.5316,-2.529,-2.5321,-2.5338,-2.5316,-2.5406,-2.5408,-2.5444,-2.5461,-2.5492,-2.5522,-2.5536,0,0,-2.5319,-2.5309,-2.5338,-2.5305,-2.5357,-2.5312,-2.537,-2.5374,-2.5365,-2.5394,-2.5396,-2.5448,-2.5464,-2.5494,-2.5612,-2.5623,0,0,0,-2.5363,-2.5384,-2.5395,-2.5411,-2.5416,-2.5422,-2.5416,-2.5418,-2.5442,-2.5383,-2.5468,-2.5477,-2.5495,-2.5508,-2.5517,-2.5531,-2.5415,-2.5415,-2.5415,-2.5472,-2.5458,-2.5505,-2.5493,-2.551,-2.5504,-2.5516,-2.5517,-2.5498,-2.5519,-2.5526,-2.5599,-2.5616,-2.5623,-2.5637,-2.5542,-2.5542,-2.5543,-2.5543,-2.5566,-2.5593,-2.5567,-2.5602,-2.5587,-2.5617,-2.5614,-2.5599,-2.5625,-2.5592,-2.5607,-2.5571,-2.5635,-2.5647,-2.5546,-2.5545,-2.5545,-2.5545,-2.5544,-2.5634,-2.5645,-2.5646,-2.5669,-2.5688,-2.5675,-2.5701,-2.5687,-2.5673,-2.5688,-2.5694,-2.5693,-2.5689,-2.5692,-2.5693,-2.5693,-2.5693,-2.5693,-2.5693,-2.5704,-2.5705,-2.5728,-2.5737,-2.5746,-2.5756,-2.5751,-2.5759,-2.5765,-2.5752,-2.5752,-2.573,-2.5645,-2.5623,-2.5697,-2.5697,-2.5696,-2.5696,-2.5695,-2.5802,-2.5778,-2.5814,-2.5822,-2.5832,-2.5852,-2.5834,-2.5852,-2.5857,-2.587,-2.5846,-2.5785,-2.5773,-2.5766,-2.5747,-2.5849,-2.5849,-2.5849,-2.5849,-2.5858,-2.5852,-2.5885,-2.59,-2.5913,-2.59,-2.5941,-2.5938,-2.5931,-2.5934,-2.5917,-2.5892,-2.5885,-2.5877,-2.5867,-2.5849,-2.5975,-2.5975,-2.5976,-2.5917,-2.5911,-2.5948,-2.5941,-2.5948,-2.5954,-2.5992,-2.601,-2.5997,-2.598,-2.5935,-2.5929,-2.5889,-2.5876,-2.5856,-2.5841,-2.5808,0,0]},{"header":{"parameterUnit":"m.s-1","parameterCategory":1,"la1":30.2992,"la2":30.254,"lo1":-89.0895,"lo2":-89.0443,"dy":0.0025,"dx":0.0025,"nx":19,"ny":19,"refTime":"2026-05-14T03:00:00:Z","depth":0,"parameterNumber":3,"parameterNumberName":"V-component_of_WINDS"},"data":[0,0,0,3.4635,3.4636,3.4677,3.4677,3.4731,3.4731,0,0,0,0,0,0,0,0,0,0,0,3.4625,3.4625,3.4635,3.4636,3.4677,3.4677,3.4731,3.4731,0,0,0,0,0,0,0,0,0,0,0,3.4625,3.4625,3.4626,3.4636,3.4677,3.4677,3.473,3.4699,0,0,0,0,0,0,0,0,0,0,3.4658,3.4652,3.4625,3.4626,3.4636,3.4677,3.4677,3.4697,3.4701,3.4713,0,3.4726,0,3.473,3.4735,3.4735,0,0,0,3.4634,3.4649,3.4658,3.4626,3.4637,3.4677,3.4658,3.4699,3.4703,3.4718,3.4727,3.4729,3.4731,3.4735,3.4736,3.4818,3.4818,0,0,3.4631,3.4633,3.4655,3.4661,3.4656,3.4656,3.4659,3.4701,3.4711,3.4727,3.473,3.4731,3.4736,3.4736,3.4817,3.4818,0,0,0,3.4626,3.4632,3.464,3.4659,3.4666,3.4658,3.4661,3.4709,3.4711,3.4731,3.4732,3.4736,3.4737,3.4817,3.4817,3.4843,0,0,0,3.4625,3.4629,3.4639,3.464,3.4666,3.4688,3.4667,3.4709,3.4713,3.4732,3.4736,3.4737,3.4816,3.4817,3.4842,3.4855,0,0,0,3.4621,3.4628,3.4635,3.464,3.4658,3.4688,3.4693,3.4709,3.4714,3.4735,3.4737,3.4816,3.4817,3.484,3.4852,3.4877,0,0,0,3.4618,3.4657,3.4636,3.468,3.4658,3.4704,3.4692,3.4726,3.4747,3.4736,3.4816,3.4817,3.4839,3.4851,3.4875,3.4898,3.4908,0,0,3.4668,3.4663,3.4689,3.4671,3.4722,3.4697,3.4751,3.4768,3.4768,3.4801,3.4803,3.4842,3.4852,3.4877,3.4963,3.4971,0,0,0,3.4706,3.4724,3.4737,3.4758,3.4773,3.4786,3.4795,3.4801,3.4829,3.4786,3.4858,3.4864,3.4878,3.4889,3.4895,3.4907,3.4823,3.4822,3.4822,3.4779,3.4778,3.482,3.4824,3.4844,3.4852,3.4868,3.4878,3.487,3.4887,3.4896,3.4949,3.4962,3.4967,3.4979,3.4908,3.4908,3.4909,3.4909,3.4853,3.4879,3.4867,3.4905,3.4902,3.4933,3.4943,3.4936,3.4963,3.4941,3.4954,3.493,3.4975,3.4986,3.4911,3.491,3.491,3.491,3.491,3.4901,3.4913,3.492,3.495,3.4973,3.4974,3.5001,3.4998,3.4995,3.5007,3.5016,3.5016,3.5015,3.5012,3.5012,3.5012,3.5012,3.5013,3.5013,3.4947,3.4955,3.4979,3.4998,3.5011,3.5027,3.5036,3.5047,3.506,3.5055,3.5055,3.5044,3.498,3.4964,3.5015,3.5015,3.5015,3.5014,3.5014,3.5022,3.5004,3.5042,3.5054,3.5076,3.5098,3.5094,3.5118,3.5127,3.5141,3.5128,3.5081,3.5075,3.507,3.5056,3.5129,3.5129,3.5129,3.5129,3.5062,3.5059,3.5096,3.5117,3.5136,3.5136,3.5176,3.5183,3.5187,3.5193,3.5182,3.5164,3.5158,3.5156,3.5148,3.5136,3.5227,3.5227,3.5227,3.5108,3.5106,3.5142,3.5147,3.5164,3.5178,3.5215,3.5238,3.5239,3.5231,3.5197,3.5193,3.5163,3.5154,3.5144,3.5133,3.511,0,0]}]]